Dewpoint
31 33 35 36 36 37 37 36 38 52 64 64 64 64 63 63 63 64 62 60 60 60 60 60 60 60 59 56 49 39 33 30 28 28 28 29 28 27 29 34 33 32 30
29 28 29 31 33 35 35 36 36 39 53 63 63 63 63 63 64 63 63 62 59 59 60 59 59 58 57 55 48 39 32 31 29 29 30 28 27 26 26 28 29 28 28
23 28 29 28 30 31 33 34 36 37 42 58 63 64 63 63 63 63 63 62 61 59 59 59 58 57 55 53 48 40 37 33 29 29 31 29 30 26 25 25 27 25 26
26 32 36 36 34 35 34 32 34 36 38 48 60 62 59 59 61 61 62 62 62 59 59 58 58 56 54 53 48 42 40 37 33 30 26 26 29 27 23 21 24 22 23
32 34 36 37 38 39 39 38 34 32 36 39 54 61 60 60 61 62 62 62 61 60 58 58 57 55 54 53 49 43 41 40 39 38 33 29 25 22 26 22 21 21 20
35 36 37 38 39 38 38 38 38 38 36 36 41 58 61 61 61 61 61 61 60 60 58 58 57 55 53 52 49 47 43 41 42 40 32 30 27 22 19 19 18 21 19
35 37 38 39 40 40 38 39 39 38 39 40 39 40 53 61 60 60 60 60 58 57 58 58 57 56 53 52 50 47 46 44 41 39 33 28 26 25 23 25 21 17 18
34 38 39 40 40 40 39 40 40 40 40 40 41 42 42 46 56 59 59 59 59 58 58 57 57 56 53 51 49 48 47 44 42 36 30 26 22 21 19 19 21 17 17
37 40 41 41 41 41 41 41 40 40 40 40 44 45 45 44 45 50 56 58 58 57 56 56 56 54 52 50 49 47 45 42 36 31 28 25 23 22 22 22 20 21 18
41 42 41 41 42 42 42 41 40 40 42 46 46 48 48 48 48 48 50 54 56 55 54 53 52 50 49 48 47 44 42 39 31 27 24 24 25 26 27 26 24 21 19
42 41 41 42 42 42 40 40 40 41 42 43 45 46 47 48 49 50 51 51 51 51 51 50 49 47 46 45 43 39 34 29 28 25 24 24 25 25 25 27 28 28 28
40 40 40 40 42 39 37 37 37 38 39 42 44 45 47 47 47 47 47 47 48 47 47 46 45 42 39 36 33 30 28 25 24 25 25 25 26 27 28 28 29 30 30
38 35 34 34 39 35 36 37 37 36 38 39 42 43 44 45 45 45 44 44 44 43 42 40 37 33 31 29 27 26 26 27 28 27 28 28 29 30 32 33 32 31 31
32 31 30 32 36 33 34 34 35 35 35 35 36 39 39 40 40 38 38 38 37 34 33 31 29 28 28 28 29 29 31 31 32 33 33 33 33 33 32 32 31 30 29
30 28 31 34 31 31 31 31 32 33 33 32 33 33 34 35 35 33 33 32 31 30 29 30 31 32 32 32 33 33 33 33 33 33 33 32 32 33 32 30 30 29 27
28 28 27 29 29 31 32 31 32 33 33 33 33 33 33 34 34 34 35 34 34 34 35 35 35 35 36 36 36 34 33 33 32 31 31 31 32 32 32 31 28 26 25
27 26 25 26 28 31 33 33 34 34 34 34 34 34 33 32 32 33 34 35 35 36 37 37 38 38 38 38 37 35 33 32 30 28 26 27 28 27 23 24 25 25 25
27 26 26 27 28 31 33 34 35 35 35 35 35 35 35 34 34 34 34 34 34 35 35 35 36 36 36 35 33 30 26 24 22 21 25 27 27 26 24 23 25 25 24
28 29 29 29 30 31 32 33 34 34 34 34 34 35 34 33 32 32 32 33 33 32 32 32 32 33 32 32 30 27 22 23 24 25 23 23 22 22 24 24 25 25 24
31 32 32 33 33 33 35 35 34 34 34 35 35 35 35 34 33 32 31 31 32 31 31 31 33 33 32 31 31 25 19 18 20 21 20 22 22 24 24 27 24 21 19
33 33 33 33 33 34 34 33 34 33 35 35 35 34 33 32 32 32 31 31 30 29 28 27 27 25 26 28 27 23 21 21 21 20 21 21 25 24 25 23 20 19 20
34 34 33 33 34 33 33 32 32 34 34 34 33 32 33 33 32 30 27 20 16 14 15 16 15 14 19 24 23 23 23 23 21 21 22 24 23 22 20 18 19 20 21
35 34 33 34 34 34 34 32 33 34 32 32 31 29 26 19 16 13 12 11 11 11 11 11 10 11 14 19 23 23 23 23 23 24 23 21 18 17 17 18 20 19 17
34 34 34 34 33 34 33 33 33 27 23 21 16 14 13 12 12 12 12 11 11 11 10 7 8 12 15 18 20 21 21 23 21 19 17 16 15 16 17 16 17 17 17
34 34 34 33 33 33 29 28 23 19 17 16 15 14 13 11 11 9 6 7 8 8 6 9 12 13 16 18 22 21 20 20 19 18 12 12 13 14 15 16 16 17 17
32 33 33 33 33 32 23 23 20 17 15 13 13 15 16 18 19 20 20 22 21 20 20 20 16 17 19 20 21 19 19 18 18 12 11 11 13 14 15 15 16 16 17
Wind_Speed
10 12 16 16 16 16 15 17 18 22 20 19 19 18 20 21 17 20 21 23 22 22 21 19 19 18 19 19 19 12 13 7 10 8 3 2 3 4 6 7 8 8 7
13 13 13 14 14 16 16 17 18 19 19 19 20 19 21 17 20 18 19 22 22 23 23 22 21 21 18 18 20 18 10 5 13 6 3 4 5 6 7 7 8 9 7
11 15 15 11 10 11 12 14 16 18 18 20 18 13 10 11 14 14 18 22 23 24 26 25 22 21 20 21 21 21 20 15 11 7 5 4 8 4 4 8 8 10 9
10 12 15 16 12 11 10 9 11 14 16 15 18 22 22 22 21 20 19 19 21 23 25 24 24 23 20 20 21 20 21 17 17 8 9 3 2 6 4 4 6 7 10
11 16 16 15 13 12 12 11 8 9 12 12 17 18 21 20 19 18 19 20 17 22 23 24 23 24 22 22 23 22 23 22 17 15 6 6 4 3 5 7 7 5 8
14 14 12 13 17 16 15 14 12 10 7 7 10 16 20 19 15 16 19 19 18 17 20 22 22 22 22 24 24 24 24 23 16 16 14 11 8 11 8 5 3 5 5
15 17 18 19 20 20 17 15 15 14 11 9 8 11 17 15 16 19 18 15 14 13 21 25 24 22 22 20 20 22 22 23 21 19 17 11 10 7 8 8 6 4 3
10 13 14 15 17 19 17 17 17 17 12 10 10 9 11 12 15 17 18 17 18 18 17 20 21 23 21 19 19 18 19 19 18 18 16 12 11 10 7 7 8 5 5
14 14 13 14 17 19 19 16 16 15 12 9 9 10 11 13 15 17 15 17 16 14 15 17 17 16 16 18 20 17 17 15 14 16 17 14 9 8 8 9 6 4 8
15 15 15 16 18 18 16 15 11 10 10 8 7 8 9 10 12 14 17 16 13 11 12 14 14 14 15 16 17 15 16 20 14 13 18 14 10 9 9 10 7 7 4
12 13 14 13 15 14 14 14 13 11 11 10 10 10 11 11 9 9 10 9 7 9 11 13 15 17 18 17 16 16 18 20 18 13 17 15 12 11 9 9 8 7 5
12 14 14 13 14 12 13 14 13 12 11 10 10 9 10 11 10 8 6 5 7 8 10 13 15 15 16 16 18 19 18 20 21 17 18 16 13 11 8 7 7 6 3
11 14 14 14 11 9 12 13 12 12 11 11 10 10 11 9 8 6 2 3 5 8 9 12 14 16 17 18 17 19 19 19 18 20 18 16 14 10 6 2 4 4 5
10 13 12 10 7 11 10 10 13 13 13 16 18 18 14 12 11 9 7 9 9 11 12 14 15 16 16 19 20 22 22 19 16 16 15 13 12 9 6 4 3 5 5
10 12 14 9 9 7 8 12 12 13 13 14 14 14 13 13 12 13 14 16 16 15 15 19 19 18 19 17 21 22 22 19 16 14 10 9 9 7 6 4 7 7 7
10 11 10 10 10 10 10 9 11 12 11 13 14 12 12 12 12 12 14 18 18 18 19 18 19 19 17 25 23 19 17 15 16 14 8 5 6 4 5 7 7 6 6
7 9 9 8 8 8 7 9 9 9 13 14 12 10 11 11 11 13 15 17 18 18 19 19 20 19 17 24 22 20 14 14 13 10 9 7 5 5 1 2 4 5 7
5 5 6 6 5 6 7 6 8 11 14 14 12 11 12 13 13 14 16 15 17 18 20 20 18 22 18 21 22 18 12 10 9 8 7 5 1 2 4 3 5 6 5
2 2 3 3 6 7 6 7 10 12 14 12 10 11 12 14 13 15 17 16 19 19 19 17 17 17 15 18 15 12 11 11 9 6 4 2 2 5 6 5 4 5 7
2 2 3 5 6 7 7 8 10 12 13 12 11 11 12 13 13 14 16 14 17 17 16 16 14 15 13 12 10 7 8 8 5 4 4 5 5 6 7 5 4 6 11
3 4 6 7 6 6 8 10 11 12 11 12 13 13 13 13 14 14 14 14 16 17 15 15 11 8 3 6 10 10 8 5 3 2 2 3 7 7 8 9 3 8 11
6 6 6 7 7 8 10 10 11 8 10 12 14 13 12 11 11 14 12 11 12 14 12 12 10 8 9 10 9 8 6 4 3 3 2 3 6 8 9 8 9 8 6
7 7 8 8 9 9 9 10 7 9 11 12 13 12 11 10 9 12 11 11 11 10 8 7 7 6 5 6 8 7 6 5 3 2 3 5 7 7 6 6 6 4 4
8 9 9 9 9 9 9 10 9 9 10 13 12 11 12 11 10 10 9 9 8 7 6 6 5 4 4 3 2 3 3 3 4 2 4 6 6 6 4 3 4 4 5
8 9 11 10 9 8 8 8 8 12 13 12 10 11 11 11 11 10 8 8 5 5 6 5 4 3 3 2 4 5 4 4 6 1 3 4 5 5 4 4 5 5 5
11 11 10 12 11 9 9 9 10 12 13 12 10 10 10 9 9 10 10 11 10 9 7 4 4 2 2 4 5 5 5 5 5 1 3 4 5 5 6 7 9 7 7
Wind_Direction
287 272 277 272 262 259 246 231 225 221 218 213 212 211 214 223 218 219 216 211 206 203 204 211 211 205 203 197 192 181 190 181 164 144 167 209 226 217 212 197 191 189 187
306 318 306 290 269 260 252 246 232 230 220 214 213 214 215 224 225 226 219 215 208 199 200 207 210 207 204 199 191 185 175 174 175 164 134 214 217 218 202 199 201 195 190
355 356 352 338 315 291 282 270 257 240 224 220 217 211 218 220 216 219 224 222 210 201 200 204 202 203 201 199 194 190 184 181 190 193 168 170 223 169 189 213 206 199 195
27 15 20 25 20 2 333 304 286 270 253 225 218 214 218 225 226 225 225 230 213 205 203 203 200 199 197 197 195 190 193 177 183 199 214 163 162 191 210 218 215 212 209
29 26 21 15 12 8 10 11 337 302 275 251 234 227 224 226 223 219 223 226 214 210 206 207 201 197 196 201 192 187 196 197 185 189 154 204 203 187 193 209 201 210 207
18 12 6 5 0 355 1 3 1 355 331 264 246 238 233 230 224 220 223 223 217 210 207 207 208 207 200 198 196 192 195 198 195 188 177 178 178 203 195 209 195 197 198
11 5 1 357 352 349 346 349 349 337 341 331 300 258 245 241 232 232 230 229 221 212 209 203 204 207 210 207 195 188 192 194 195 184 189 186 187 172 177 168 184 198 169
4 358 351 347 344 338 330 331 325 319 328 329 320 308 289 272 256 243 235 231 224 222 222 214 212 209 199 193 191 192 192 190 188 175 178 179 182 173 167 166 166 175 202
356 356 350 344 338 328 321 319 319 312 316 316 316 313 302 286 272 264 253 242 234 225 208 204 205 204 194 189 183 185 179 175 173 172 165 164 157 144 137 136 141 167 192
352 354 348 351 346 338 327 324 329 315 321 334 333 326 311 287 278 274 263 250 241 213 191 184 180 172 174 175 176 170 165 162 164 160 148 139 135 122 112 113 123 112 127
349 345 346 353 353 357 10 15 11 2 357 355 353 355 348 339 325 301 286 263 228 197 186 175 169 166 166 167 160 158 162 152 142 136 130 126 120 117 103 108 104 112 131
349 350 352 349 355 353 3 7 5 356 347 341 349 0 355 346 331 313 286 229 199 175 170 160 157 156 156 154 152 149 151 138 128 123 118 114 112 108 111 122 129 148 161
351 344 347 345 347 356 9 7 1 355 349 354 356 5 16 4 339 328 282 184 153 146 148 142 143 142 141 135 129 125 119 116 116 116 118 118 118 122 120 207 175 168 170
350 338 332 338 354 16 5 360 15 11 7 24 17 15 17 30 32 38 52 78 94 106 114 112 114 118 118 116 115 110 105 100 102 107 116 125 135 143 159 181 222 232 226
343 346 346 351 32 6 15 27 20 19 18 33 36 35 30 40 46 53 60 66 69 73 84 94 93 97 100 104 106 107 115 117 108 97 100 106 115 149 172 182 222 215 233
354 355 360 16 20 9 6 23 28 23 32 43 39 38 49 55 61 64 70 75 78 83 84 83 91 94 98 106 107 105 106 108 110 117 106 124 121 146 197 220 242 230 234
357 6 5 21 11 8 357 21 33 39 50 51 44 48 50 53 59 71 76 83 88 90 85 89 90 86 96 104 102 100 94 100 108 131 139 125 147 179 163 330 310 301 293
6 18 2 20 18 25 30 35 45 53 58 55 47 51 61 62 61 67 72 74 80 81 86 80 84 86 81 92 91 94 105 109 102 98 95 106 107 293 281 278 277 275 286
27 40 35 47 46 43 39 53 57 64 69 64 60 60 69 74 76 77 81 79 79 78 78 76 84 95 91 90 107 115 109 104 102 117 118 100 324 321 322 311 289 291 297
85 62 70 63 56 43 53 65 64 67 68 71 71 72 76 81 81 83 80 78 84 84 88 85 77 82 90 85 88 96 93 93 100 70 30 1 334 318 319 349 328 315 308
107 98 80 73 63 72 79 73 67 66 72 75 72 73 76 79 82 83 86 89 89 87 82 84 75 74 118 110 109 89 78 96 89 49 8 342 334 335 338 327 330 302 305
115 106 94 81 75 86 95 85 74 70 82 88 88 86 85 82 85 92 87 87 97 99 100 103 91 64 51 71 72 74 74 67 36 13 324 296 339 339 333 327 309 311 341
126 115 108 92 79 91 102 99 95 99 95 93 92 91 87 83 85 94 95 92 93 102 106 104 97 76 54 53 58 53 37 14 58 15 19 359 343 333 332 322 328 330 305
144 136 123 108 99 97 103 107 111 103 103 104 102 101 99 95 87 86 91 102 107 111 109 99 89 74 72 69 53 39 22 48 8 72 15 356 349 344 339 338 335 320 310
161 151 141 135 130 129 121 124 122 126 119 116 115 108 102 101 95 85 93 95 88 112 118 116 122 109 92 22 35 14 22 17 349 76 353 347 347 346 339 329 322 322 321
165 161 153 149 149 150 143 138 141 140 135 127 124 121 117 111 108 108 97 91 96 97 100 130 117 50 30 38 19 3 6 355 2 11 334 328 330 329 333 331 327 321 323